OBJECT BR, 62672

Orbit data source: Space-Track

You're viewing an Uncataloged Satellite

Recently launched and/or uncataloged satellites may have evolving metadata. Metadata may include but not limited to: Owner, Maufacturer, Bus, Motor, and Mission.

OBJECT BR, 62672 is a satellite in SSO that was launched on Tue, 14 Jan 2025 UTC via an FALCON 9 launch vehicle from the Air Force Western Test Range (AFWTR). Unknown objects in Earth's orbit typically refer to objects detected orbiting the Earth but have not yet been identified or cataloged. These objects could be anything from previously untracked satellites, spent rocket stages, debris from satellite collisions, or even natural meteoroids temporarily captured by Earth's gravity.

Loading next visibility...
Identifier
62672, 2025-009BR
Orbit
SSO
Country
Flag of TBDTBD
Related business
None
Manufacturer
Unknown
Mission
Operational Commercial Communications
Bus & Motor
Unknown
Mass
Unknown
Launch date (UTC)
2025-01-14 (1 year ago)
Launch vehicle
FALCON 9
Launch site
Air Force Western Test Range (AFWTR)
Object type
Unknown
Shape & HBR
Box + 2 Pan, 0.4 m
Radar Cross Section
0.014 m², Medium (>0.1 m² and < 1m²)

Expand to show TLE details & history
Last TLE update: 7 hours ago

TLE from 7 hours ago
0 OBJECT BR
1 62672U 25009BR  26126.50216541  .00004446  00000-0  19410-3 0  9996
2 62672  97.3953 206.2442 0006205 114.8801 245.3082 15.22625335130043
Epoch: 2026-05-06T12:03Z
TLE epoch observation values (Epoch: 2026-05-06T12:03:07.091Z)
Latitude
0.00006°
Longitude
161.10291°
Altitude
502.804 km
Speed
7.612 km/s
True Right ascension
13h 44m 58s
True Declination
0° 00' 00"
Sunlit
Object was in full shadow at epoch
Visualization orbit readout
Latitude
Unknown
Longitude
Unknown
Altitude
Unknown
Speed
Unknown
Apparent Right ascension
Unknown
Apparent Declination
Unknown
Sunlit
N/A
Visualization observer readout
Local Sidereal Time
03:07:49
Azimuth
Unknown
Elevation
Unknown
Doppler factor
Unknown
Orbital elements
Apogee altitude
499.152 km
Perigee altitude
490.623 km
Semi-major axis
6,873.024 km
Eccentricity
0.00062
Inclination
97.3953°
RAAN
206.2442°
Arg. of periapsis
114.8801°
True anomaly
245.24362°
Mean anomaly
245.3082°
Eccentric anomaly
245.27591°
Mean motion
3.80909 °/min
Orbital period
94.51 mins
BSTAR
0.0001941
Loading maneuver chart data...
Computing Atmospheric mass density...
Loading historical data...
Loading historical data...
Loading historical data...
Loading historical data...
Loading historical data...
Loading historical data...
Loading historical data...

Documentation

Showing up to 5 results
|